This demonstration page uses our WeatherBlox Daily Observations layout. Learn more.

Left ArrowRight Arrow

Hourly Observations for February 25, 2018

Temp ( °F °C ) Dew Point ( °F °C ) Humidity (%) Winds ( mph kmh ) Pressure ( in mb ) Visibility ( mi km ) Precip ( " mm )
12:54 am 00:54 Clear 25 -3.9 18 -7.8 75 75 W 7 11 29.94 1014 10 16 0.00 0.00
1:54 am 01:54 Clear 23 -5 16 -8.9 74 74 Calm 29.94 1014 10 16 0.00 0.00
2:54 am 02:54 Clear 21 -6.1 16 -8.9 81 81 ESE 5 7 29.95 1014 10 16 0.00 0.00
3:54 am 03:54 Clear 21 -6.1 15 -9.4 78 78 SSW 3 6 29.96 1014 10 16 0.00 0.00
4:54 am 04:54 Clear 23 -5 16 -8.9 74 74 WSW 8 13 29.96 1015 10 16 0.00 0.00
5:54 am 05:54 Clear 22 -5.6 16 -8.9 78 78 SW 7 11 29.98 1015 10 16 0.00 0.00
6:54 am 06:54 Clear 21 -6.1 15 -9.4 78 78 SSW 6 9 29.99 1016 10 16 0.00 0.00
7:54 am 07:54 Sunny 24 -4.4 16 -8.9 71 71 WSW 7 11 30.00 1016 10 16 0.00 0.00
8:54 am 08:54 Sunny 26 -3.3 19 -7.2 75 75 WSW 6 9 30.01 1016 10 16 0.00 0.00
9:54 am 09:54 Sunny 31 -0.6 23 -5 72 72 W 8 13 30.03 1017 10 16 0.00 0.00
10:54 am 10:54 Sunny 35 1.7 25 -3.9 67 67 WSW 10 17 30.04 1017 10 16 0.00 0.00
11:54 am 11:54 Sunny 39 3.9 27 -2.8 62 62 WSW 10 17 30.05 1018 10 16 0.00 0.00
12:54 pm 12:54 Sunny 42 5.6 27 -2.8 55 55 SW 12 19 30.03 1017 10 16 0.00 0.00
1:54 pm 13:54 Sunny 45 7.2 28 -2.2 52 52 SW 12 19 30.02 1017 10 16 0.00 0.00
2:54 pm 14:54 Sunny 47 8.3 26 -3.3 44 44 SW 14 22 30.01 1016 10 16 0.00 0.00
3:54 pm 15:54 Sunny 48 8.9 22 -5.6 36 36 SW 13 20 30.01 1016 10 16 0.00 0.00
4:54 pm 16:54 Sunny 48 8.9 22 -5.6 36 36 SW 9 15 30.01 1016 10 16 0.00 0.00
5:54 pm 17:54 Sunny 47 8.3 23 -5 39 39 W 6 9 30.03 1017 10 16 0.00 0.00
6:54 pm 18:54 Mostly Clear 40 4.4 24 -4.4 53 53 SW 8 13 30.06 1018 10 16 0.00 0.00
7:54 pm 19:54 Cloudy 38 3.3 24 -4.4 57 57 Calm 30.07 1018 10 16 0.00 0.00
8:54 pm 20:54 Cloudy 35 1.7 25 -3.9 67 67 SSW 3 6 30.09 1019 10 16 0.00 0.00
9:54 pm 21:54 Clear 31 -0.6 24 -4.4 76 76 Calm 30.10 1019 10 16 0.00 0.00
10:54 pm 22:54 Clear 29 -1.7 22 -5.6 75 75 SSE 3 6 30.11 1020 10 16 0.00 0.00
11:54 pm 23:54 Clear 27 -2.8 22 -5.6 81 81 Calm 30.11 1020 10 16 0.00 0.00

Powered by AerisWeather